カタログに戻る

LEASAT 3

運用中通信GEO
NORAD 15643·PAYLOAD·🇺🇸 United States

打ち上げ Apr 12, 1985 から Cape Canaveral Space Force Station

Loading…

TLE

最新Source: Space-Track

元期: Sep 14, 2026, 10:43 UTC

1 15643U 85028C   26257.44668853 -.00000103  00000-0  00000-0 0  9993
2 15643  11.0559 306.1729 0079917 308.2046 111.0561  0.96962479137486

AllMySatでLEASAT 3をリアルタイム追跡

Download on the App Store